Terug naar catalogus

STARLINK-11318

ActiefCommunicatieVLEO
NORAD 61252·PAYLOAD·🇺🇸 United States

Gelanceerd Sep 25, 2024 vanaf Vandenberg Space Force Base

Loading…

Volgende Passages (komende 24 uur)

TLE

VersSource: CelesTrak SupGP

Epoch: Sep 14, 2026, 20:56 UTC

1 61252C 24175K   26257.87270833  .00058055  00000+0  47813-3 0  2570
2 61252  53.1575 203.9062 0001323  99.6086   1.0305 15.69684400    16

Volg STARLINK-11318 in realtime met AllMySat

Download on the App Store